Flag for Norfolk Island Weather past 2 weeks in Kingston, Norfolk Island

Now
70 °F

Partly sunny.


Feels Like: 70 °F
Forecast: 62 / 67 °F
Wind: 7 mph from North

Location: Norfolk Island Airport

Current Time: Aug 28, 2014 at 3:12:07 PM

Latest Report: Aug 28, 2014 at 2:30 PM


Visibility: N/A

Pressure: 29.98 "Hg

Humidity: 73%

Dew point: 61 °F

Location of KingstonLocation

Historic Weather in Kingston — Graph

°F

Kingston temperature yesterday

Maximum temperature yesterday: 68 °F (at 11:30 AM)
Minimum temperature yesterday: 61 °F (at 12:30 AM)
Average temperature yesterday: 64 °F

Past Weeks' High & Low Weather Summary

 TemperatureHumidityPressure
High70 °F (Aug 28, 11:00 AM)100% (Aug 19, 12:30 AM)30.36 "Hg (Aug 19, 12:30 AM)
Low52 °F (Aug 17, 6:00 AM)42% (Aug 24, 10:33 AM)29.80 "Hg (Aug 19, 3:30 AM)
Average61 °F72%30.12 "Hg
* Reported Aug 13 1:30 PM — Aug 28 1:30 PM, Kingston, Weather by CustomWeather, © 2014

Note: Actual official high and low records may vary slightly from our data, if they occured in-between our weather recording intervals... More about our weather records

Advertising

Kingston weather history for previous 24 hours

 ConditionsComfort  
Time TempWeatherWind HumidityBarometerVisibility
1:30 PM
Aug 28
70 °FPartly sunny.13 mph78%29.98 "HgN/A
1:00 PM70 °FScattered clouds.8 mph73%29.98 "HgN/A
12:30 PM70 °FScattered clouds.8 mph73%29.98 "HgN/A
12:00 PM70 °FScattered clouds.8 mph73%30.01 "HgN/A
11:30 AM68 °FScattered clouds.8 mph78%30.01 "HgN/A
11:00 AM70 °FScattered clouds.9 mph78%30.04 "HgN/A
10:30 AM66 °FPartly sunny.8 mph88%30.04 "HgN/A
10:00 AM68 °FScattered clouds.7 mph78%30.01 "HgN/A
9:30 AM66 °FScattered clouds.7 mph88%30.01 "HgN/A
9:00 AM66 °FPassing clouds.7 mph83%30.01 "HgN/A
8:30 AM64 °FPassing clouds.7 mph94%30.01 "HgN/A
7:30 AM64 °FPassing clouds.7 mph88%30.01 "HgN/A
7:00 AM64 °FMore clouds than sun.7 mph94%29.98 "HgN/A
6:30 AM64 °FSunny.7 mph94%29.98 "HgN/A
5:00 AM64 °FClear.8 mph88%29.95 "HgN/A
4:30 AM64 °FClear.6 mph88%29.92 "HgN/A
3:30 AM64 °FClear.7 mph94%29.92 "HgN/A
1:30 AM64 °FPassing clouds.8 mph94%29.95 "HgN/A
1:00 AM64 °FMostly cloudy.8 mph94%29.95 "Hg6 mi
12:33 AM64 °FMostly cloudy.9 mph94%29.95 "HgN/A
11:30 PM
Aug 27
64 °FRain showers. Low clouds.10 mph100%29.95 "Hg1 mi
11:00 PM64 °FFog.12 mph100%29.95 "Hg0 mi
10:30 PM64 °FFog.10 mph100%29.95 "Hg0 mi
9:30 PM64 °FFog.9 mph94%29.95 "Hg0 mi
9:00 PM64 °FFog.10 mph94%29.95 "Hg0 mi
8:30 PM64 °FFog.10 mph94%29.95 "Hg0 mi
7:30 PM64 °FFog.9 mph94%29.92 "Hg0 mi
7:00 PM64 °FFog.9 mph94%29.92 "Hg1 mi
6:30 PM64 °FFog.10 mph94%29.92 "Hg0 mi
6:00 PM64 °FFog.10 mph94%29.89 "Hg1 mi
5:30 PM64 °FFog.9 mph94%29.89 "Hg2 mi
5:00 PM64 °FFog.12 mph94%29.89 "Hg2 mi
4:30 PM64 °FLow clouds.10 mph94%29.89 "Hg3 mi
3:30 PM64 °FLow clouds.13 mph94%29.89 "Hg3 mi
3:00 PM64 °FLow clouds.15 mph94%29.89 "Hg4 mi
Weather by CustomWeather, © 2014

See weather overviewHow to use our weather pages